This is the latest recevied weather packets stored in our database for station/object AJ5AG. If no packets are shown the sender has not sent any weather packets the latest 10 day(s).
| Time | Temp. | Humidity | Pressure | Rain* | Wind** | Luminosity | Snow |
|---|---|---|---|---|---|---|---|
| 1777998560 | 25.56° C | 82% | 1012 hPa | 0 mm | - | 275 W/m² | - |
| 1777998255 | 25.56° C | 82% | 1012 hPa | 0 mm | - | 193 W/m² | - |
| 1777997952 | 25.56° C | 82% | 1012.1 hPa | 0 mm | - | 122 W/m² | - |
| 1777997649 | 25.56° C | 83% | 1012 hPa | 0 mm | - | 134 W/m² | - |
| 1777997346 | 25° C | 83% | 1012.1 hPa | 0 mm | - | 234 W/m² | - |
| 1777997044 | 25° C | 85% | 1011.9 hPa | 0 mm | - | 203 W/m² | - |
| 1777996741 | 25° C | 85% | 1012 hPa | 0 mm | - | 82 W/m² | - |
| 1777996436 | 24.44° C | 85% | 1012.1 hPa | 0 mm | - | 91 W/m² | - |
| 1777996134 | 24.44° C | 85% | 1012 hPa | 0 mm | - | 149 W/m² | - |
| 1777995830 | 24.44° C | 86% | 1011.9 hPa | 0 mm | - | 62 W/m² | - |
| 1777995526 | 24.44° C | 85% | 1012 hPa | 0 mm | - | 80 W/m² | - |
| 1777995223 | 24.44° C | 85% | 1011.8 hPa | 0 mm | - | 82 W/m² | - |
| 1777994921 | 24.44° C | 85% | 1011.9 hPa | 0 mm | - | 58 W/m² | - |
| 1777994618 | 24.44° C | 85% | 1011.8 hPa | 0 mm | - | 54 W/m² | - |
| 1777994317 | 24.44° C | 85% | 1011.9 hPa | 0 mm | - | 93 W/m² | - |
| 1777994014 | 24.44° C | 85% | 1011.8 hPa | 0 mm | - | 67 W/m² | - |
| 1777993712 | 24.44° C | 85% | 1011.6 hPa | 0 mm | - | 88 W/m² | - |
| 1777993409 | 24.44° C | 85% | 1011.6 hPa | 0 mm | - | 117 W/m² | - |
| 1777993109 | 24.44° C | 85% | 1011.7 hPa | 0 mm | - | 116 W/m² | - |
| 1777992807 | 24.44° C | 85% | 1011.6 hPa | 0 mm | - | 99 W/m² | - |
| 1777992505 | 24.44° C | 86% | 1011.6 hPa | 0 mm | - | 134 W/m² | - |
| 1777992203 | 23.89° C | 86% | 1011.8 hPa | 0 mm | - | 183 W/m² | - |
| 1777991899 | 23.89° C | 87% | 1011.7 hPa | 0 mm | - | 145 W/m² | - |
| 1777991598 | 23.89° C | 87% | 1011.9 hPa | 0 mm | - | 79 W/m² | - |
| 1777991294 | 23.89° C | 87% | 1011.9 hPa | 0 mm | - | 89 W/m² | - |
* Rain latest hour (hover to see other rain measurements)
** Current wind speed in m/s (hover to see current wind gust speed)